Back to catalog

THORAD AGENA D DEB

AliveSSO
NORAD 4687·DEBRIS·🇺🇸 United States

Launched Apr 8, 1970 from Vandenberg Space Force Base

Loading…

Next Passes (next 24 hours)

TLE

FreshSource: Space-Track

Epoch: Sep 14, 2026, 08:45 UTC

1 04687U 70025BL  26257.36523766  .00000099  00000-0  21679-3 0  9995
2 04687  99.5799  38.8502 0028023  65.3471 322.6139 13.51273391776328

Track THORAD AGENA D DEB in real time with AllMySat

Download on the App Store